QPF
0.03 0.03 0.03 0.02 0.02 0.02 0.01 0.01 0.00 0.00 0.00 0.01 0.01 0.01 0.01 0.01 0.00 0.01 0.01 0.01 0.01 0.01 0.02 0.02 0.02 0.03 0.04 0.04 0.04 0.03 0.03 0.02 0.03 0.03 0.03 0.04 0.04 0.04 0.04 0.06 0.07 0.05 0.02 0.01
0.02 0.02 0.01 0.01 0.01 0.03 0.02 0.01 0.01 0.00 0.00 0.00 0.01 0.01 0.01 0.01 0.01 0.01 0.01 0.01 0.01 0.01 0.01 0.02 0.02 0.02 0.04 0.05 0.04 0.03 0.03 0.03 0.02 0.01 0.01 0.02 0.04 0.04 0.03 0.03 0.06 0.07 0.05 0.03
0.01 0.01 0.01 0.01 0.01 0.03 0.03 0.01 0.01 0.00 0.00 0.00 0.01 0.02 0.01 0.01 0.01 0.01 0.01 0.01 0.01 0.01 0.01 0.01 0.01 0.01 0.02 0.05 0.04 0.03 0.02 0.03 0.02 0.02 0.01 0.03 0.04 0.05 0.05 0.04 0.05 0.06 0.05 0.05
0.01 0.01 0.01 0.01 0.01 0.03 0.04 0.01 0.01 0.01 0.01 0.01 0.02 0.03 0.02 0.01 0.01 0.01 0.01 0.01 0.01 0.01 0.01 0.01 0.02 0.01 0.02 0.04 0.05 0.03 0.03 0.03 0.03 0.03 0.02 0.02 0.03 0.03 0.04 0.03 0.03 0.04 0.04 0.04
0.01 0.01 0.01 0.01 0.01 0.02 0.03 0.02 0.01 0.01 0.01 0.01 0.01 0.03 0.03 0.01 0.01 0.01 0.01 0.02 0.02 0.02 0.01 0.02 0.02 0.01 0.02 0.03 0.05 0.06 0.04 0.04 0.04 0.04 0.02 0.03 0.03 0.03 0.03 0.04 0.03 0.03 0.04 0.03
0.00 0.01 0.01 0.01 0.01 0.01 0.03 0.03 0.02 0.02 0.03 0.03 0.02 0.03 0.04 0.04 0.03 0.02 0.01 0.02 0.03 0.03 0.02 0.03 0.02 0.02 0.02 0.03 0.03 0.06 0.06 0.05 0.05 0.05 0.03 0.03 0.03 0.04 0.04 0.04 0.04 0.03 0.03 0.03
0.01 0.01 0.01 0.01 0.01 0.02 0.04 0.06 0.08 0.09 0.08 0.05 0.03 0.03 0.05 0.05 0.04 0.03 0.04 0.04 0.04 0.04 0.03 0.03 0.04 0.04 0.03 0.02 0.02 0.03 0.07 0.06 0.05 0.05 0.03 0.03 0.04 0.04 0.05 0.04 0.04 0.03 0.02 0.02
0.02 0.02 0.01 0.01 0.03 0.05 0.05 0.04 0.05 0.05 0.04 0.03 0.03 0.04 0.06 0.06 0.04 0.04 0.05 0.05 0.04 0.04 0.04 0.04 0.04 0.06 0.04 0.03 0.02 0.02 0.05 0.08 0.07 0.06 0.04 0.02 0.03 0.04 0.05 0.04 0.04 0.03 0.02 0.01
0.02 0.02 0.01 0.01 0.02 0.05 0.06 0.04 0.03 0.04 0.03 0.03 0.03 0.04 0.05 0.05 0.04 0.05 0.05 0.05 0.05 0.05 0.04 0.04 0.04 0.05 0.05 0.06 0.05 0.04 0.03 0.06 0.07 0.08 0.05 0.03 0.02 0.03 0.04 0.05 0.04 0.04 0.02 0.01
0.03 0.02 0.01 0.01 0.01 0.02 0.04 0.04 0.05 0.06 0.04 0.03 0.03 0.03 0.05 0.06 0.06 0.06 0.05 0.05 0.07 0.06 0.04 0.04 0.04 0.04 0.04 0.04 0.04 0.04 0.04 0.04 0.06 0.08 0.08 0.05 0.03 0.02 0.03 0.04 0.04 0.04 0.04 0.02
0.02 0.02 0.01 0.01 0.02 0.02 0.03 0.04 0.05 0.05 0.04 0.04 0.03 0.04 0.05 0.06 0.06 0.05 0.05 0.06 0.08 0.07 0.05 0.05 0.05 0.04 0.04 0.04 0.04 0.03 0.03 0.03 0.04 0.06 0.09 0.07 0.04 0.03 0.03 0.03 0.04 0.04 0.05 0.06
0.01 0.01 0.01 0.01 0.01 0.02 0.03 0.05 0.05 0.05 0.04 0.03 0.02 0.04 0.04 0.05 0.05 0.05 0.05 0.05 0.07 0.06 0.06 0.05 0.05 0.04 0.05 0.05 0.04 0.03 0.02 0.03 0.03 0.05 0.07 0.09 0.07 0.04 0.03 0.03 0.03 0.04 0.04 0.07
0.01 0.01 0.01 0.01 0.01 0.01 0.02 0.03 0.03 0.04 0.04 0.03 0.03 0.04 0.04 0.04 0.03 0.04 0.04 0.04 0.06 0.06 0.05 0.05 0.04 0.04 0.04 0.04 0.03 0.02 0.02 0.02 0.03 0.04 0.05 0.07 0.08 0.07 0.04 0.03 0.04 0.04 0.04 0.05
0.01 0.01 0.01 0.01 0.02 0.01 0.01 0.01 0.02 0.04 0.05 0.04 0.03 0.03 0.03 0.03 0.02 0.03 0.04 0.04 0.05 0.05 0.04 0.03 0.04 0.04 0.03 0.03 0.03 0.02 0.02 0.02 0.03 0.05 0.04 0.06 0.07 0.08 0.06 0.04 0.03 0.05 0.06 0.05
0.01 0.01 0.00 0.00 0.00 0.00 0.01 0.01 0.01 0.03 0.04 0.04 0.04 0.03 0.04 0.04 0.04 0.04 0.03 0.04 0.04 0.04 0.03 0.02 0.03 0.03 0.03 0.03 0.03 0.02 0.01 0.01 0.02 0.04 0.03 0.04 0.05 0.06 0.06 0.05 0.03 0.04 0.06 0.07
0.00 0.01 0.00 0.00 0.00 0.00 0.00 0.01 0.01 0.02 0.02 0.03 0.03 0.04 0.04 0.03 0.04 0.03 0.04 0.04 0.03 0.03 0.03 0.02 0.02 0.02 0.02 0.03 0.03 0.01 0.01 0.02 0.01 0.03 0.03 0.03 0.04 0.04 0.05 0.05 0.04 0.03 0.04 0.07
0.01 0.01 0.01 0.01 0.00 0.01 0.01 0.02 0.02 0.02 0.03 0.03 0.04 0.04 0.04 0.03 0.04 0.05 0.05 0.04 0.04 0.04 0.03 0.02 0.02 0.02 0.02 0.03 0.03 0.02 0.01 0.02 0.01 0.02 0.02 0.02 0.02 0.03 0.03 0.04 0.03 0.03 0.03 0.05
0.01 0.01 0.02 0.01 0.01 0.01 0.02 0.02 0.02 0.02 0.02 0.03 0.03 0.03 0.04 0.05 0.06 0.05 0.05 0.05 0.06 0.05 0.03 0.02 0.02 0.02 0.02 0.02 0.03 0.02 0.01 0.02 0.01 0.01 0.01 0.01 0.01 0.01 0.01 0.02 0.02 0.02 0.02 0.03
0.01 0.02 0.02 0.02 0.01 0.01 0.01 0.01 0.02 0.03 0.03 0.03 0.03 0.02 0.03 0.04 0.04 0.05 0.05 0.06 0.07 0.05 0.03 0.02 0.02 0.02 0.02 0.02 0.02 0.01 0.01 0.01 0.00 0.00 0.00 0.01 0.00 0.01 0.01 0.01 0.01 0.02 0.02 0.02
0.02 0.02 0.02 0.01 0.01 0.01 0.01 0.01 0.02 0.02 0.03 0.02 0.02 0.02 0.02 0.03 0.03 0.04 0.05 0.06 0.06 0.05 0.03 0.02 0.01 0.01 0.01 0.02 0.02 0.01 0.01 0.01 0.01 0.01 0.01 0.01 0.01 0.01 0.01 0.01 0.01 0.02 0.02 0.02
0.02 0.02 0.02 0.01 0.01 0.01 0.01 0.01 0.01 0.02 0.02 0.02 0.02 0.03 0.03 0.03 0.04 0.04 0.04 0.05 0.06 0.05 0.03 0.02 0.01 0.01 0.01 0.01 0.02 0.01 0.01 0.01 0.01 0.02 0.01 0.01 0.01 0.01 0.01 0.01 0.01 0.02 0.03 0.03
0.01 0.01 0.01 0.01 0.01 0.01 0.01 0.01 0.02 0.03 0.02 0.02 0.03 0.03 0.03 0.03 0.03 0.03 0.04 0.04 0.04 0.04 0.03 0.02 0.02 0.02 0.01 0.01 0.02 0.02 0.02 0.02 0.02 0.02 0.02 0.01 0.02 0.02 0.02 0.02 0.02 0.02 0.03 0.03
0.01 0.01 0.01 0.01 0.01 0.01 0.02 0.02 0.03 0.02 0.02 0.02 0.02 0.02 0.03 0.03 0.03 0.03 0.04 0.04 0.03 0.03 0.03 0.02 0.02 0.01 0.01 0.02 0.02 0.02 0.02 0.03 0.02 0.02 0.02 0.02 0.02 0.03 0.03 0.03 0.03 0.03 0.03 0.03
0.01 0.01 0.01 0.01 0.01 0.01 0.02 0.02 0.02 0.02 0.02 0.02 0.02 0.02 0.02 0.03 0.03 0.03 0.04 0.04 0.03 0.03 0.03 0.03 0.02 0.02 0.02 0.02 0.02 0.02 0.03 0.03 0.03 0.03 0.03 0.03 0.03 0.03 0.03 0.04 0.04 0.04 0.04 0.04
0.01 0.01 0.00 0.01 0.01 0.01 0.01 0.01 0.02 0.02 0.01 0.01 0.01 0.02 0.02 0.03 0.03 0.04 0.04 0.04 0.03 0.02 0.02 0.02 0.02 0.02 0.02 0.02 0.02 0.03 0.03 0.03 0.03 0.03 0.03 0.03 0.02 0.02 0.03 0.03 0.03 0.03 0.04 0.04
0.01 0.01 0.01 0.01 0.01 0.01 0.01 0.01 0.02 0.02 0.01 0.01 0.01 0.01 0.02 0.03 0.04 0.04 0.04 0.04 0.03 0.02 0.02 0.02 0.01 0.02 0.02 0.02 0.03 0.03 0.03 0.03 0.03 0.03 0.03 0.03 0.02 0.02 0.03 0.03 0.03 0.04 0.04 0.04
MSLP
1028.25 1028.61 1028.98 1029.27 1029.43 1029.42 1029.29 1029.08 1028.90 1028.83 1028.94 1029.26 1029.76 1030.39 1031.04 1031.61 1032.00 1032.15 1032.06 1031.75 1031.30 1030.79 1030.30 1029.91 1029.63 1029.43 1029.28 1029.11 1028.85 1028.45 1027.88 1027.17 1026.37 1025.53 1024.73 1024.04 1023.47 1023.06 1022.77 1022.58 1022.45 1022.33 1022.20 1022.07
1029.85 1030.30 1030.73 1031.03 1031.15 1031.07 1030.81 1030.45 1030.09 1029.84 1029.77 1029.92 1030.28 1030.80 1031.38 1031.91 1032.30 1032.48 1032.43 1032.17 1031.76 1031.29 1030.82 1030.43 1030.13 1029.93 1029.76 1029.59 1029.35 1029.00 1028.51 1027.89 1027.18 1026.44 1025.73 1025.08 1024.54 1024.11 1023.78 1023.53 1023.31 1023.11 1022.90 1022.69
1031.30 1031.78 1032.21 1032.49 1032.56 1032.39 1032.02 1031.52 1031.01 1030.58 1030.34 1030.33 1030.56 1030.97 1031.49 1032.00 1032.41 1032.65 1032.69 1032.53 1032.22 1031.83 1031.41 1031.03 1030.72 1030.48 1030.28 1030.08 1029.84 1029.51 1029.08 1028.55 1027.96 1027.34 1026.73 1026.17 1025.68 1025.27 1024.93 1024.63 1024.35 1024.07 1023.78 1023.48
1032.52 1032.98 1033.37 1033.60 1033.61 1033.37 1032.91 1032.31 1031.67 1031.12 1030.73 1030.58 1030.67 1030.97 1031.41 1031.90 1032.34 1032.65 1032.80 1032.78 1032.60 1032.32 1031.99 1031.65 1031.34 1031.07 1030.83 1030.58 1030.31 1029.99 1029.60 1029.15 1028.66 1028.16 1027.67 1027.22 1026.80 1026.44 1026.10 1025.77 1025.45 1025.11 1024.75 1024.38
1033.50 1033.90 1034.23 1034.40 1034.35 1034.07 1033.56 1032.91 1032.20 1031.55 1031.05 1030.77 1030.73 1030.90 1031.25 1031.68 1032.13 1032.50 1032.75 1032.86 1032.84 1032.70 1032.49 1032.23 1031.95 1031.66 1031.38 1031.09 1030.77 1030.43 1030.07 1029.68 1029.27 1028.88 1028.50 1028.14 1027.81 1027.49 1027.17 1026.84 1026.48 1026.10 1025.69 1025.26
1034.27 1034.59 1034.85 1034.97 1034.89 1034.59 1034.09 1033.44 1032.72 1032.03 1031.45 1031.06 1030.87 1030.90 1031.11 1031.45 1031.84 1032.23 1032.55 1032.78 1032.90 1032.92 1032.84 1032.68 1032.47 1032.20 1031.91 1031.58 1031.22 1030.86 1030.49 1030.13 1029.78 1029.46 1029.17 1028.90 1028.63 1028.36 1028.06 1027.73 1027.36 1026.95 1026.50 1026.04
1034.89 1035.13 1035.32 1035.40 1035.32 1035.06 1034.61 1034.02 1033.34 1032.65 1032.03 1031.54 1031.21 1031.07 1031.10 1031.28 1031.56 1031.89 1032.22 1032.53 1032.76 1032.92 1032.99 1032.96 1032.84 1032.63 1032.35 1032.01 1031.63 1031.24 1030.86 1030.50 1030.18 1029.91 1029.67 1029.45 1029.23 1028.99 1028.71 1028.38 1028.00 1027.58 1027.12 1026.64
1035.39 1035.56 1035.70 1035.77 1035.73 1035.53 1035.18 1034.69 1034.10 1033.45 1032.82 1032.24 1031.77 1031.44 1031.25 1031.22 1031.32 1031.53 1031.81 1032.13 1032.44 1032.71 1032.91 1033.01 1033.00 1032.88 1032.65 1032.33 1031.95 1031.55 1031.15 1030.79 1030.47 1030.21 1029.99 1029.80 1029.60 1029.38 1029.11 1028.78 1028.40 1027.97 1027.51 1027.03
1035.80 1035.92 1036.04 1036.12 1036.13 1036.02 1035.79 1035.43 1034.95 1034.37 1033.74 1033.10 1032.49 1031.96 1031.55 1031.27 1031.15 1031.18 1031.34 1031.61 1031.93 1032.28 1032.58 1032.81 1032.92 1032.90 1032.75 1032.48 1032.13 1031.73 1031.33 1030.96 1030.63 1030.37 1030.15 1029.95 1029.76 1029.53 1029.26 1028.94 1028.56 1028.13 1027.68 1027.22
1036.13 1036.23 1036.34 1036.43 1036.49 1036.48 1036.37 1036.13 1035.76 1035.27 1034.66 1033.97 1033.25 1032.54 1031.90 1031.38 1031.02 1030.84 1030.84 1031.00 1031.29 1031.66 1032.03 1032.35 1032.58 1032.67 1032.61 1032.42 1032.12 1031.75 1031.36 1030.99 1030.66 1030.38 1030.15 1029.94 1029.74 1029.51 1029.23 1028.90 1028.52 1028.11 1027.67 1027.24
1036.40 1036.47 1036.57 1036.68 1036.77 1036.82 1036.79 1036.65 1036.37 1035.94 1035.37 1034.66 1033.86 1033.01 1032.19 1031.46 1030.87 1030.49 1030.31 1030.35 1030.56 1030.90 1031.30 1031.68 1031.99 1032.18 1032.22 1032.11 1031.89 1031.57 1031.22 1030.86 1030.54 1030.26 1030.01 1029.80 1029.58 1029.34 1029.05 1028.72 1028.35 1027.95 1027.53 1027.12
1036.60 1036.67 1036.74 1036.83 1036.91 1036.96 1036.96 1036.86 1036.63 1036.25 1035.70 1034.99 1034.15 1033.23 1032.29 1031.41 1030.66 1030.11 1029.78 1029.68 1029.80 1030.08 1030.47 1030.88 1031.24 1031.49 1031.62 1031.60 1031.45 1031.20 1030.90 1030.58 1030.28 1030.01 1029.77 1029.55 1029.32 1029.07 1028.79 1028.46 1028.09 1027.70 1027.30 1026.91
1036.78 1036.83 1036.86 1036.88 1036.90 1036.89 1036.83 1036.71 1036.47 1036.10 1035.57 1034.87 1034.04 1033.10 1032.13 1031.18 1030.35 1029.69 1029.25 1029.05 1029.08 1029.29 1029.62 1030.02 1030.39 1030.68 1030.86 1030.91 1030.84 1030.67 1030.43 1030.17 1029.90 1029.66 1029.43 1029.21 1028.99 1028.74 1028.45 1028.12 1027.76 1027.38 1027.00 1026.62
1036.98 1037.00 1036.96 1036.88 1036.76 1036.62 1036.44 1036.21 1035.90 1035.49 1034.96 1034.29 1033.50 1032.61 1031.67 1030.76 1029.92 1029.24 1028.76 1028.49 1028.44 1028.57 1028.84 1029.19 1029.54 1029.83 1030.04 1030.14 1030.12 1030.02 1029.85 1029.65 1029.43 1029.22 1029.02 1028.81 1028.59 1028.34 1028.05 1027.73 1027.36 1026.99 1026.61 1026.24
1037.23 1037.21 1037.08 1036.85 1036.56 1036.23 1035.85 1035.45 1035.01 1034.52 1033.96 1033.31 1032.58 1031.79 1030.96 1030.15 1029.40 1028.77 1028.30 1028.01 1027.91 1027.98 1028.18 1028.46 1028.75 1029.02 1029.22 1029.34 1029.37 1029.31 1029.20 1029.06 1028.89 1028.71 1028.53 1028.34 1028.12 1027.87 1027.58 1027.25 1026.88 1026.50 1026.12 1025.75
1037.52 1037.46 1037.22 1036.83 1036.34 1035.76 1035.15 1034.54 1033.92 1033.31 1032.70 1032.07 1031.42 1030.75 1030.07 1029.41 1028.80 1028.28 1027.88 1027.62 1027.50 1027.52 1027.64 1027.84 1028.06 1028.28 1028.45 1028.56 1028.60 1028.59 1028.52 1028.42 1028.29 1028.14 1027.98 1027.80 1027.58 1027.32 1027.02 1026.67 1026.30 1025.90 1025.51 1025.13
1037.81 1037.69 1037.34 1036.79 1036.08 1035.27 1034.41 1033.56 1032.75 1032.01 1031.33 1030.71 1030.13 1029.59 1029.07 1028.59 1028.15 1027.77 1027.47 1027.27 1027.15 1027.14 1027.20 1027.31 1027.46 1027.60 1027.72 1027.81 1027.85 1027.85 1027.81 1027.73 1027.63 1027.51 1027.35 1027.16 1026.94 1026.66 1026.34 1025.98 1025.58 1025.17 1024.76 1024.37
1037.97 1037.80 1037.34 1036.64 1035.74 1034.71 1033.63 1032.57 1031.59 1030.72 1029.97 1029.35 1028.84 1028.41 1028.05 1027.74 1027.47 1027.24 1027.05 1026.91 1026.82 1026.78 1026.78 1026.82 1026.89 1026.96 1027.02 1027.07 1027.10 1027.10 1027.06 1027.01 1026.92 1026.80 1026.64 1026.44 1026.19 1025.89 1025.55 1025.16 1024.75 1024.32 1023.89 1023.47
1037.85 1037.62 1037.07 1036.24 1035.19 1034.01 1032.77 1031.56 1030.45 1029.49 1028.70 1028.08 1027.62 1027.29 1027.06 1026.90 1026.77 1026.67 1026.57 1026.49 1026.42 1026.36 1026.32 1026.30 1026.29 1026.29 1026.30 1026.31 1026.31 1026.30 1026.27 1026.22 1026.13 1026.01 1025.84 1025.62 1025.35 1025.03 1024.65 1024.24 1023.81 1023.36 1022.92 1022.49
1037.29 1036.98 1036.36 1035.45 1034.32 1033.06 1031.75 1030.47 1029.31 1028.32 1027.52 1026.93 1026.52 1026.27 1026.14 1026.08 1026.05 1026.04 1026.01 1025.97 1025.91 1025.83 1025.75 1025.68 1025.61 1025.56 1025.52 1025.50 1025.48 1025.46 1025.43 1025.37 1025.28 1025.15 1024.97 1024.73 1024.44 1024.09 1023.69 1023.26 1022.81 1022.35 1021.89 1021.45
1036.19 1035.79 1035.10 1034.17 1033.04 1031.78 1030.50 1029.25 1028.13 1027.18 1026.44 1025.89 1025.55 1025.36 1025.29 1025.30 1025.33 1025.37 1025.37 1025.35 1025.28 1025.18 1025.07 1024.95 1024.84 1024.75 1024.68 1024.63 1024.60 1024.57 1024.54 1024.48 1024.39 1024.25 1024.05 1023.80 1023.48 1023.12 1022.70 1022.26 1021.79 1021.32 1020.86 1020.41
1034.50 1034.00 1033.28 1032.37 1031.30 1030.15 1028.99 1027.88 1026.89 1026.07 1025.42 1024.97 1024.70 1024.57 1024.54 1024.58 1024.63 1024.68 1024.69 1024.65 1024.56 1024.44 1024.30 1024.15 1024.01 1023.89 1023.80 1023.74 1023.70 1023.67 1023.64 1023.58 1023.48 1023.34 1023.13 1022.86 1022.53 1022.15 1021.72 1021.26 1020.78 1020.30 1019.83 1019.37
1032.29 1031.71 1030.97 1030.12 1029.18 1028.21 1027.26 1026.37 1025.60 1024.96 1024.48 1024.16 1023.97 1023.89 1023.90 1023.94 1023.99 1024.02 1024.00 1023.93 1023.82 1023.67 1023.51 1023.33 1023.18 1023.05 1022.95 1022.88 1022.84 1022.81 1022.78 1022.72 1022.62 1022.46 1022.25 1021.96 1021.61 1021.21 1020.76 1020.28 1019.79 1019.30 1018.81 1018.34
1029.74 1029.06 1028.34 1027.58 1026.82 1026.08 1025.40 1024.80 1024.29 1023.90 1023.62 1023.45 1023.36 1023.35 1023.37 1023.41 1023.43 1023.42 1023.37 1023.27 1023.12 1022.95 1022.76 1022.58 1022.41 1022.28 1022.18 1022.11 1022.07 1022.04 1022.00 1021.94 1021.83 1021.66 1021.42 1021.12 1020.74 1020.31 1019.84 1019.33 1018.81 1018.29 1017.78 1017.29
1027.03 1026.29 1025.60 1024.97 1024.41 1023.94 1023.56 1023.26 1023.05 1022.92 1022.85 1022.84 1022.86 1022.90 1022.95 1022.97 1022.96 1022.92 1022.82 1022.69 1022.52 1022.33 1022.13 1021.94 1021.77 1021.64 1021.54 1021.47 1021.43 1021.39 1021.34 1021.26 1021.13 1020.93 1020.67 1020.33 1019.92 1019.45 1018.93 1018.38 1017.82 1017.26 1016.71 1016.17
1024.39 1023.62 1022.99 1022.50 1022.16 1021.95 1021.86 1021.87 1021.94 1022.05 1022.19 1022.32 1022.44 1022.54 1022.59 1022.61 1022.57 1022.49 1022.37 1022.21 1022.02 1021.83 1021.63 1021.45 1021.29 1021.16 1021.06 1020.98 1020.92 1020.87 1020.79 1020.67 1020.51 1020.27 1019.96 1019.57 1019.11 1018.58 1018.00 1017.40 1016.78 1016.16 1015.55 1014.96
Thickness
5475 5474 5473 5474 5476 5482 5486 5490 5496 5500 5500 5497 5500 5505 5512 5517 5523 5529 5536 5543 5551 5560 5569 5576 5582 5587 5592 5597 5600 5605 5608 5612 5614 5617 5620 5622 5623 5625 5625 5626 5628 5629 5631 5632
5466 5462 5462 5462 5463 5466 5472 5476 5482 5486 5485 5485 5489 5493 5501 5506 5511 5517 5523 5531 5538 5547 5557 5563 5570 5576 5582 5587 5592 5596 5600 5604 5607 5610 5613 5616 5617 5618 5619 5619 5621 5622 5625 5626
5449 5448 5449 5450 5452 5454 5463 5467 5470 5470 5473 5477 5479 5487 5495 5498 5502 5507 5513 5519 5526 5533 5542 5551 5558 5565 5572 5577 5582 5586 5590 5594 5598 5601 5604 5606 5608 5609 5611 5612 5613 5615 5617 5618
5437 5436 5437 5441 5442 5443 5455 5461 5458 5458 5462 5469 5472 5480 5490 5488 5492 5496 5502 5508 5515 5522 5529 5538 5545 5552 5560 5566 5571 5576 5580 5584 5588 5592 5596 5600 5603 5605 5607 5607 5607 5609 5611 5612
5423 5421 5425 5428 5433 5433 5442 5446 5450 5452 5455 5456 5463 5464 5480 5478 5479 5485 5489 5495 5503 5510 5517 5525 5532 5540 5547 5553 5559 5565 5570 5574 5577 5582 5587 5591 5595 5598 5600 5600 5601 5602 5603 5605
5414 5411 5412 5416 5422 5426 5429 5438 5443 5446 5448 5445 5456 5458 5466 5468 5468 5474 5479 5483 5491 5498 5505 5513 5521 5528 5535 5541 5547 5553 5558 5562 5567 5571 5576 5582 5587 5590 5591 5593 5594 5595 5597 5598
5408 5408 5406 5408 5415 5418 5420 5427 5437 5439 5440 5447 5450 5447 5451 5455 5457 5462 5467 5473 5479 5486 5493 5500 5509 5516 5523 5529 5535 5541 5548 5552 5556 5561 5566 5571 5576 5580 5584 5586 5588 5589 5590 5591
5396 5402 5398 5397 5399 5401 5408 5415 5423 5431 5439 5444 5436 5438 5446 5442 5445 5451 5457 5463 5469 5475 5480 5488 5496 5505 5512 5518 5524 5530 5537 5541 5546 5551 5555 5560 5565 5570 5574 5577 5580 5582 5584 5585
5379 5386 5387 5387 5389 5393 5399 5404 5407 5412 5421 5426 5431 5432 5434 5432 5438 5444 5449 5454 5460 5464 5470 5477 5485 5493 5501 5507 5513 5519 5525 5531 5536 5540 5545 5550 5555 5560 5564 5567 5570 5573 5575 5576
5359 5366 5375 5378 5384 5385 5388 5394 5399 5404 5411 5422 5428 5430 5429 5423 5428 5433 5440 5445 5450 5455 5461 5467 5474 5481 5488 5496 5502 5509 5515 5521 5526 5530 5535 5540 5545 5549 5553 5557 5560 5564 5566 5567
5352 5354 5366 5371 5368 5371 5376 5379 5386 5397 5401 5414 5421 5423 5410 5410 5414 5420 5428 5433 5439 5445 5451 5457 5463 5469 5475 5483 5490 5497 5504 5510 5515 5521 5526 5531 5535 5539 5543 5547 5550 5553 5556 5558
5347 5352 5358 5361 5359 5358 5361 5363 5371 5382 5386 5396 5410 5406 5396 5397 5403 5408 5414 5420 5427 5434 5441 5447 5452 5458 5464 5471 5478 5485 5492 5499 5504 5510 5516 5521 5526 5530 5534 5537 5540 5543 5546 5548
5340 5341 5355 5365 5359 5352 5349 5351 5354 5361 5374 5385 5397 5395 5388 5389 5394 5398 5403 5409 5417 5423 5431 5437 5442 5448 5453 5459 5466 5473 5480 5486 5493 5499 5505 5510 5515 5520 5524 5527 5529 5532 5535 5537
5338 5333 5339 5349 5348 5342 5340 5343 5347 5351 5364 5371 5377 5379 5379 5379 5382 5388 5393 5399 5406 5413 5420 5426 5432 5437 5442 5447 5454 5461 5468 5474 5480 5487 5493 5499 5505 5509 5513 5516 5519 5522 5524 5527
5329 5330 5327 5331 5333 5333 5334 5337 5340 5342 5350 5357 5364 5364 5364 5364 5368 5374 5382 5388 5396 5402 5408 5414 5420 5425 5431 5436 5442 5449 5456 5462 5468 5474 5481 5486 5491 5497 5500 5504 5508 5510 5513 5515
5317 5321 5318 5323 5328 5329 5330 5333 5334 5335 5339 5344 5349 5351 5352 5353 5358 5366 5371 5377 5384 5390 5396 5402 5408 5414 5420 5426 5432 5438 5444 5450 5456 5462 5468 5474 5479 5484 5488 5492 5495 5499 5501 5504
5314 5309 5319 5333 5320 5324 5333 5325 5324 5326 5327 5332 5338 5341 5342 5344 5349 5355 5360 5365 5372 5379 5385 5391 5397 5403 5409 5415 5420 5427 5432 5439 5445 5450 5455 5461 5466 5471 5476 5479 5483 5486 5489 5492
5303 5305 5310 5321 5319 5320 5329 5315 5317 5318 5318 5319 5324 5329 5332 5335 5341 5347 5351 5356 5362 5367 5374 5380 5386 5392 5398 5404 5410 5416 5421 5427 5433 5438 5442 5447 5453 5458 5461 5466 5470 5474 5477 5479
5302 5303 5311 5313 5318 5327 5321 5311 5306 5309 5315 5314 5314 5319 5323 5327 5337 5346 5344 5346 5351 5357 5362 5368 5375 5381 5387 5393 5400 5406 5411 5416 5421 5426 5430 5435 5440 5444 5448 5453 5457 5460 5463 5465
5295 5295 5305 5304 5312 5320 5320 5305 5301 5304 5315 5310 5307 5309 5312 5318 5333 5341 5336 5337 5341 5347 5353 5358 5364 5371 5378 5384 5390 5395 5400 5405 5409 5414 5418 5423 5428 5432 5436 5440 5443 5446 5449 5452
5295 5294 5295 5300 5305 5316 5301 5294 5298 5306 5313 5301 5300 5301 5304 5309 5315 5320 5323 5327 5332 5337 5343 5348 5354 5361 5367 5373 5378 5384 5389 5393 5397 5401 5406 5411 5415 5420 5423 5427 5430 5433 5436 5438
5296 5298 5291 5293 5298 5306 5289 5290 5293 5298 5293 5292 5293 5294 5296 5300 5304 5308 5313 5318 5323 5328 5333 5338 5344 5350 5356 5362 5368 5373 5378 5381 5385 5390 5395 5399 5403 5407 5411 5414 5417 5420 5422 5425
5282 5286 5291 5290 5298 5289 5282 5283 5282 5281 5283 5285 5286 5287 5288 5292 5297 5301 5305 5310 5314 5319 5324 5329 5334 5341 5346 5351 5356 5362 5366 5370 5374 5378 5383 5387 5391 5395 5398 5402 5405 5407 5409 5413
5275 5265 5270 5273 5283 5277 5275 5274 5274 5273 5274 5277 5278 5279 5281 5284 5289 5293 5297 5301 5306 5311 5315 5320 5325 5330 5335 5340 5345 5350 5354 5359 5363 5367 5371 5375 5379 5382 5385 5388 5391 5394 5398 5401
5274 5262 5264 5269 5274 5271 5273 5271 5270 5269 5268 5269 5271 5272 5274 5277 5282 5285 5289 5293 5298 5302 5307 5310 5315 5319 5324 5329 5334 5338 5343 5348 5352 5356 5359 5363 5366 5369 5372 5374 5377 5381 5384 5387
5266 5262 5266 5277 5274 5270 5273 5270 5267 5265 5264 5264 5265 5267 5269 5271 5275 5279 5282 5286 5290 5294 5298 5302 5306 5310 5314 5318 5323 5328 5332 5336 5341 5344 5348 5351 5354 5356 5359 5362 5364 5366 5369 5372